This demonstration page uses our WeatherBlox Daily Observations layout. Learn more.

Left ArrowRight Arrow

44.89941, -97.11507

Hourly Observations for August 7, 2022

Temp ( °F °C ) Dew Point ( °F °C ) Humidity (%) Winds ( mph kmh ) Pressure ( in mb ) Visibility ( mi km ) Precip ( " mm )
12:53 am 00:53 Clear 58 14.4 54 12.2 87 87 NNE 12 19 30.07 1018 10 16 0.00 0.00
1:53 am 01:53 Mostly Cloudy 58 14.4 53 11.7 84 84 NNE 13 20 30.06 1018 10 16 0.00 0.00
2:53 am 02:53 Cloudy 57 13.9 54 12.2 90 90 NNE 10 17 30.06 1018 10 16 0.00 0.00
3:53 am 03:53 Cloudy 59 15 55 12.8 87 87 NNE 10 17 30.05 1018 10 16 0.00 0.00
4:53 am 04:53 Cloudy 59 15 56 13.3 90 90 NNE 8 13 30.04 1017 10 16 0.00 0.00
5:53 am 05:53 Cloudy 59 15 55 12.8 87 87 NNE 8 13 30.04 1017 10 16 0.00 0.00
6:53 am 06:53 Partly Cloudy 58 14.4 55 12.8 90 90 NNE 6 9 30.06 1018 10 16 0.00 0.00
7:53 am 07:53 Partly Cloudy 59 15 56 13.3 90 90 NNE 8 13 30.06 1018 10 16 0.00 0.00
8:53 am 08:53 Mostly Cloudy 62 16.7 57 13.9 84 84 NNE 10 17 30.07 1018 10 16 0.00 0.00
9:53 am 09:53 Sunny 67 19.4 58 14.4 73 73 NNE 12 19 30.04 1017 10 16 0.00 0.00
10:53 am 10:53 Mostly Cloudy 66 18.9 59 15 78 78 Calm 30.08 1019 10 16 0.00 0.00
11:53 am 11:53 Cloudy with Light Rain 65 18.3 60 15.6 84 84 NNE 8 13 30.08 1019 9 14 0.00 0.00
12:53 pm 12:53 Cloudy 66 18.9 60 15.6 81 81 N 12 19 30.06 1018 10 16 0.00 0.00
1:53 pm 13:53 Cloudy 69 20.6 60 15.6 73 73 NNE 12 19 30.06 1018 10 16 0.00 0.00
2:53 pm 14:53 Cloudy 70 21.1 60 15.6 71 71 NNE 12 19 30.06 1018 10 16 0.00 0.00
3:53 pm 15:53 Cloudy 68 20 58 14.4 70 70 NNE 13 20 30.04 1017 10 16 0.00 0.00
4:21 pm 16:21 Cloudy with Nearby Thunderstorms 64 17.8 59 15 84 84 N 13 20 30.04 1017 4 6 0.03 0.76
4:33 pm 16:33 Cloudy with Heavy Rain 62 16.7 60 15.6 93 93 N 15 24 30.03 1017 3 4 0.09 2.29
4:37 pm 16:37 Cloudy with Nearby Thunderstorms 62 16.7 60 15.6 93 93 N 12 19 30.05 1017 1 2 0.18 4.57
4:48 pm 16:48 Cloudy with Strong Thunderstorms 61 16 61 16 100 100 N 14 22 30.06 1018 1 1 0.45 11.43
4:53 pm 16:53 Cloudy with Strong Thunderstorms 60 15.6 59 15 96 96 NNE 15 24 30.08 1019 1 2 0.48 12.19
4:56 pm 16:56 Cloudy with Thunderstorms 60 15.6 59 15 96 96 NNE 14 22 30.05 1018 2 2 0.00 0.00
5:00 pm 17:00 Cloudy with Thunderstorms 60 15.6 60 15.6 100 100 NNE 12 19 30.05 1018 3 5 0.01 0.25
5:03 pm 17:03 Cloudy with Nearby Thunderstorms 61 16.1 60 15.6 97 97 NNE 12 19 30.05 1018 5 8 0.01 0.25
5:21 pm 17:21 Cloudy with Light Rain 61 16.1 60 15.6 97 97 NNE 10 17 30.05 1018 10 16 0.02 0.51
5:53 pm 17:53 Cloudy 61 16.1 59 15 93 93 N 12 19 30.09 1019 10 16 0.02 0.51
6:53 pm 18:53 Cloudy with Light Rain 60 15.6 59 15 96 96 N 7 11 30.10 1019 10 16 0.02 0.51
7:11 pm 19:11 Cloudy 60 15.6 59 15 96 96 N 8 13 30.07 1018 10 16 0.00 0.00
7:39 pm 19:39 Cloudy 62 16.7 60 15.6 93 93 NNE 6 9 30.06 1018 10 16 0.00 0.00
7:53 pm 19:53 Partly Cloudy 61 16.1 59 15 93 93 N 8 13 30.09 1019 10 16 0.00 0.00
8:53 pm 20:53 Clear 58 14.4 57 13.9 97 97 NNW 8 13 30.10 1019 10 16 0.00 0.00
9:53 pm 21:53 Clear 56 13.3 56 13.3 100 100 N 7 11 30.11 1020 10 16 0.00 0.00
10:53 pm 22:53 Clear 55 12.8 54 12.2 96 96 NNW 5 7 30.11 1020 10 16 0.00 0.00
11:53 pm 23:53 Clear 55 12.8 54 12.2 96 96 NNW 8 13 30.11 1020 10 16 0.00 0.00

Powered by AerisWeather